STARLINK-3154, 49417

Orbit data source: Space-Track

STARLINK-3154, 49417 is a payload satellite owned by SpaceX/Seattle (US) in LEO that was launched on Sat, 13 Nov 2021 UTC via an FALCON 9 launch vehicle from the Air Force Eastern Test Range (AFETR). Payload-class satellites include a variety of spacecraft equipped with specific instruments for various scientific and technological missions. These include communications satellites like Starlink; space stations such as the ISS; scientific satellites like the Hubble; Earth observation satellites from companies like Planet Labs, Umbra, and HawkEye 360; GPS; miniature CubeSats for education and research; and military/defense satellites.

Loading next visibility...
Identifier
49417, 2021-104K
Orbit
LEO
Country
Flag of USUS
Related business
Manufacturer
SpaceX/Seattle
Mission
Operational Commercial Communications
Bus & Motor
STARLINK, Unknown motor
Mass
290 kg wet, ~270 kg dry
Launch date (UTC)
2021-11-13 (5 years ago)
Launch vehicle
FALCON 9
Launch site
Air Force Eastern Test Range (AFETR)
Object type
Payload
Rocket body
Debris
Shape & HBR
Box + 1 Pan, 10.1 m
Radar Cross Section
13.562 m², Large (>1 m²)

Expand to show TLE details & history
Last TLE update: 1 week ago

TLE from 1 week ago
0 STARLINK-3154
1 49417U 21104K   26154.78073892  .00000060  00000-0  21914-4 0  9992
2 49417  53.1822 192.2828 0002730  29.9274 330.1874 15.08837788251767
Epoch: 2026-06-03T18:44Z
TLE epoch observation values (Epoch: 2026-06-03T18:44:15.842Z)
Latitude
0.00002°
Longitude
18.98237°
Altitude
539.005 km
Speed
7.595 km/s
True Right ascension
12h 49m 07s
True Declination
0° 00' 00"
Sunlit
Object was in full shadow at epoch
Visualization orbit readout
Latitude
Unknown
Longitude
Unknown
Altitude
Unknown
Speed
Unknown
Apparent Right ascension
Unknown
Apparent Declination
Unknown
Sunlit
N/A
Visualization observer readout
Local Sidereal Time
13:26:15
Azimuth
Unknown
Elevation
Unknown
Doppler factor
Unknown
Orbital elements
Apogee altitude
541.889 km
Perigee altitude
538.112 km
Semi-major axis
6,918.138 km
Eccentricity
0.00027
Inclination
53.1822°
RAAN
192.2828°
Arg. of periapsis
29.9274°
True anomaly
330.17184°
Mean anomaly
330.1874°
Eccentric anomaly
330.17962°
Mean motion
3.77189 °/min
Orbital period
95.44 mins
BSTAR
0.000021914
Loading maneuver chart data...
Computing Atmospheric mass density...
Loading historical data...
Loading historical data...
Loading historical data...
Loading historical data...
Loading historical data...
Loading historical data...
Loading historical data...

Documentation

Showing up to 5 results
|